This is the latest recevied weather packets stored in our database for station/object 4S6DRJ-13. If no packets are shown the sender has not sent any weather packets the latest 10 day(s).
| Time | Temp. | Humidity | Pressure | Rain* | Wind** | Luminosity | Snow |
|---|---|---|---|---|---|---|---|
| 1788384595 | 27.78° C | 86% | 1008.8 hPa | 0 mm | 0.45 m/s, 182° | 0 W/m² | - |
| 1788384534 | 27.78° C | 86% | 1008.7 hPa | 0 mm | 0.45 m/s, 287° | 0 W/m² | - |
| 1788384474 | 27.78° C | 87% | 1008.7 hPa | 0 mm | 0 m/s | 0 W/m² | - |
| 1788384413 | 27.78° C | 86% | 1008.8 hPa | 0 mm | 0 m/s | 0 W/m² | - |
| 1788384352 | 27.78° C | 86% | 1008.9 hPa | 0 mm | 0 m/s | 0 W/m² | - |
| 1788384290 | 27.78° C | 86% | 1008.8 hPa | 0 mm | 1.34 m/s, 102° | 0 W/m² | - |
| 1788384230 | 27.78° C | 86% | 1008.7 hPa | 0 mm | 0.45 m/s, 211° | 0 W/m² | - |
| 1788384168 | 27.78° C | 86% | 1008.9 hPa | 0 mm | 0.89 m/s, 223° | 0 W/m² | - |
| 1788384108 | 27.78° C | 86% | 1008.7 hPa | 0 mm | 0 m/s | 0 W/m² | - |
| 1788384047 | 27.78° C | 86% | 1008.8 hPa | 0 mm | 0.45 m/s, 225° | 0 W/m² | - |
| 1788383987 | 27.78° C | 86% | 1008.9 hPa | 0 mm | 0.89 m/s, 265° | 0 W/m² | - |
| 1788383925 | 27.78° C | 86% | 1009 hPa | 0 mm | 0.89 m/s, 243° | 0 W/m² | - |
| 1788383864 | 27.78° C | 86% | 1008.8 hPa | 0 mm | 0.45 m/s, 195° | 0 W/m² | - |
| 1788383803 | 27.78° C | 86% | 1009.1 hPa | 0 mm | 0.89 m/s, 153° | 0 W/m² | - |
| 1788383742 | 27.78° C | 86% | 1008.9 hPa | 0 mm | 1.34 m/s, 232° | 0 W/m² | - |
| 1788383681 | 27.78° C | 86% | 1008.8 hPa | 0 mm | 0 m/s | 0 W/m² | - |
| 1788383620 | 27.78° C | 86% | 1008.8 hPa | 0 mm | 0.89 m/s, 245° | 0 W/m² | - |
| 1788383559 | 27.78° C | 86% | 1008.9 hPa | 0 mm | 0.45 m/s, 178° | 0 W/m² | - |
| 1788383498 | 27.78° C | 86% | 1009.1 hPa | 0 mm | 0 m/s | 0 W/m² | - |
| 1788383437 | 27.78° C | 86% | 1009 hPa | 0 mm | 0.45 m/s, 265° | 0 W/m² | - |
| 1788383376 | 27.78° C | 86% | 1009 hPa | 0 mm | 0.45 m/s, 219° | 0 W/m² | - |
| 1788383315 | 27.78° C | 86% | 1009 hPa | 0 mm | 0.45 m/s, 240° | 0 W/m² | - |
| 1788383254 | 27.78° C | 86% | 1009 hPa | 0 mm | 0.45 m/s, 252° | 0 W/m² | - |
| 1788383193 | 27.78° C | 86% | 1008.9 hPa | 0 mm | 0.89 m/s, 226° | 0 W/m² | - |
| 1788383132 | 27.78° C | 86% | 1009.1 hPa | 0 mm | 0.45 m/s, 201° | 0 W/m² | - |
* Rain latest hour (hover to see other rain measurements)
** Current wind speed in m/s (hover to see current wind gust speed)